Tracking 23731 objects as of 26-Sep-2021
HD Live streaming from Space Station
objects crossing your sky now

STARLINK-1565

Track STARLINK-1565 now!
10-day predictions
STARLINK-1565 is classified as:


NORAD ID: 46037
Int'l Code: 2020-055L
Perigee: 553.4 km
Apogee: 555.3 km
Inclination: 53.1 °
Period: 95.6 minutes
Semi major axis: 6925 km
RCS: Unknown
Launch date: August 7, 2020
Source: United States (US)
Launch site: AIR FORCE EASTERN TEST RANGE (AFETR)
aabbcc
Your satellite tracking list
Your tracking list is empty




NASA's NSSDC Master Catalog

Two Line Element Set (TLE):
1 46037U 20055L   21269.16332160 -.00000008  00000-0  18382-4 0  9999
2 46037  53.0539 223.8986 0001408  75.3529 284.7616 15.06404494 63379
Source of the keplerian elements: AFSPC